EW4956 Weather Reports


time (UTC)temp
C
wind
direction
speed
KPH
gust
KPH
rain 1hr
cm
rain 24hr
cm
rain mn
cm
humidity
%
barometer
mb
20260502123038 7 253 0.0 1.6 0.00 0.00 0.00 34 1016.5
20260502121537 6 253 0.0 0.0 0.00 0.00 0.00 35 1016.6
20260502114538 7 253 0.0 0.0 0.00 0.00 0.00 36 1016.6
20260502113036 7 253 0.0 0.0 0.00 0.00 0.00 35 1016.5
20260502111534 7 253 0.0 0.0 0.00 0.00 0.00 36 1016.5
20260502110035 7 253 0.0 0.0 0.00 0.00 0.00 37 1016.6
20260502104531 6 253 0.0 0.0 0.00 0.00 0.00 38 1016.5
20260502103056 6 253 0.0 0.0 0.00 0.00 0.00 39 1016.6
20260502101545 6 253 0.0 0.0 0.00 0.00 0.00 39 1016.6
20260502091522 7 253 0.0 0.0 0.00 0.00 0.00 38 1016.6
20260502071514 7 247 0.0 0.0 0.00 0.00 0.00 34 1016.9
20260502070012 7 246 0.0 0.0 0.00 0.00 0.00 35 1017.1
20260502064503 7 246 0.0 0.0 0.00 0.00 0.00 35 1017.1
20260502063002 7 246 0.0 0.0 0.00 0.00 0.00 36 1016.9
20260502061601 7 246 0.0 0.0 0.00 0.00 0.00 37 1016.9
20260502060107 7 246 0.0 0.0 0.00 0.00 0.00 39 1016.8
20260502054622 7 246 0.0 0.0 0.00 0.00 0.00 40 1016.6
20260502053112 7 246 0.0 0.0 0.00 0.00 0.00 44 1016.6
20260502051557 8 246 0.0 1.6 0.00 0.00 0.00 46 1016.6
20260502050057 8 246 0.0 0.0 0.00 0.00 0.00 47 1016.4
20260502044555 8 241 0.0 0.0 0.00 0.00 0.00 48 1016.5
20260502043105 8 241 0.0 1.6 0.00 0.00 0.00 48 1016.5
20260502041555 8 241 0.0 0.0 0.00 0.00 0.00 48 1016.4
20260502040055 8 238 0.0 0.0 0.00 0.00 0.00 49 1016.4
20260502034553 8 238 0.0 0.0 0.00 0.00 0.00 49 1016.2
20260502033053 8 237 0.0 0.0 0.00 0.00 0.00 48 1016.0
20260502031552 8 237 0.0 0.0 0.00 0.00 0.00 47 1015.7
20260502030104 9 237 0.0 0.0 0.00 0.00 0.00 46 1015.4
20260502024551 10 236 0.0 0.0 0.00 0.00 0.00 45 1015.2
20260502023056 11 236 0.0 0.0 0.00 0.00 0.00 43 1015.1
20260502021552 11 236 0.0 0.0 0.00 0.00 0.00 42 1014.9
20260502020052 12 236 0.0 0.0 0.00 0.00 0.00 40 1014.8
20260502014548 13 236 0.0 0.0 0.00 0.00 0.00 37 1014.6
20260502013055 13 236 0.0 0.0 0.00 0.00 0.00 36 1014.6
20260502011548 14 236 0.0 0.0 0.00 0.00 0.00 34 1014.6
20260502010053 15 236 0.0 1.6 0.00 0.00 0.00 33 1014.6
20260502004545 15 234 0.0 1.6 0.00 0.00 0.00 32 1014.6
20260502003043 15 234 0.0 1.6 0.00 0.00 0.00 30 1014.6
20260502001543 15 240 0.0 1.6 0.00 0.00 0.00 29 1014.6
20260502000042 15 234 0.0 4.8 0.00 0.00 0.00 30 1014.8
20260501234540 15 153 0.0 3.2 0.00 0.00 0.00 31 1014.6
20260501233050 16 165 0.0 0.0 0.00 0.00 0.00 30 1014.8
20260501231537 15 162 0.0 8.0 0.00 0.00 0.00 29 1015.0
20260501230037 15 157 0.0 4.8 0.00 0.00 0.00 30 1015.1
20260501224536 16 182 0.0 4.8 0.00 0.00 0.00 30 1015.0
20260501223040 16 158 0.0 4.8 0.00 0.00 0.00 29 1015.2
20260501221535 15 163 0.0 11.3 0.00 0.00 0.00 27 1015.4
20260501220032 16 168 0.0 4.8 0.00 0.00 0.00 28 1015.6
20260501214534 15 168 0.0 6.4 0.00 0.00 0.00 28 1015.7
20260501213029 16 154 0.0 11.3 0.00 0.00 0.00 26 1015.9
20260501211542 16 168 0.0 3.2 0.00 0.00 0.00 27 1015.8
20260501210037 16 161 0.0 3.2 0.00 0.00 0.00 25 1015.8
20260501204528 16 213 0.0 6.4 0.00 0.00 0.00 24 1015.9
20260501203030 16 184 0.0 6.4 0.00 0.00 0.00 24 1016.0
20260501201528 16 154 0.0 1.6 0.00 0.00 0.00 23 1016.1
20260501200025 16 88 0.0 1.6 0.00 0.00 0.00 19 1016.3
20260501194526 16 32 0.0 0.0 0.00 0.00 0.00 20 1016.3
20260501193022 16 26 0.0 0.0 0.00 0.00 0.00 22 1016.5
20260501191519 15 27 0.0 9.7 0.00 0.00 0.00 22 1016.8
20260501190020 15 33 0.0 0.0 0.00 0.00 0.00 24 1017.1
20260501184515 14 36 0.0 1.6 0.00 0.00 0.00 24 1017.2
20260501183012 14 133 0.0 3.2 0.00 0.00 0.00 26 1017.3
20260501181510 13 25 0.0 14.5 0.00 0.00 0.00 25 1017.6
20260501180010 13 24 0.0 11.3 0.00 0.00 0.00 26 1017.6
20260501174502 13 10 0.0 3.2 0.00 0.00 0.00 27 1017.7
20260501173101 12 9 0.0 4.8 0.00 0.00 0.00 26 1017.8
20260501171602 12 46 0.0 14.5 0.00 0.00 0.00 30 1017.8
20260501170107 12 63 0.0 12.9 0.00 0.00 0.00 27 1017.9
20260501164553 12 32 0.0 3.2 0.00 0.00 0.00 29 1017.9
20260501163045 11 43 0.0 12.9 0.00 0.00 0.00 29 1017.7
20260501161540 11 31 1.6 17.7 0.00 0.00 0.00 29 1017.8
20260501160045 10 34 0.0 22.5 0.00 0.00 0.00 31 1017.7
20260501154531 10 32 0.0 8.0 0.00 0.00 0.00 36 1017.5
20260501153027 10 37 0.0 17.7 0.00 0.00 0.00 40 1017.5
20260501151522 9 36 0.0 0.0 0.00 0.00 0.00 42 1017.6
20260501150023 9 30 0.0 3.2 0.00 0.00 0.00 42 1017.6
20260501144518 8 30 0.0 3.2 0.00 0.00 0.00 44 1017.7
20260501143009 8 26 0.0 8.0 0.00 0.00 0.00 45 1017.7